Voltar ao catálogo

FENGYUN 1C DEB

AtivoSSO
NORAD 31211·DEBRIS·🇨🇳 China

Lançado May 10, 1999 de Taiyuan Satellite Launch Center

Loading…

Próximas Passagens (próximas 24 horas)

TLE

EnvelhecendoSource: Space-Track

Época: Sep 5, 2026, 08:12 UTC

1 31211U 99025BKR 26248.34215192  .00000945  00000-0  44962-3 0  9998
2 31211  98.6520 283.8587 0050412  40.4030 320.0875 14.21040168670784

Acompanhe FENGYUN 1C DEB em tempo real com AllMySat

Download on the App Store